Starlink 36167

operational
NORAD ID: 67011 Int'l Des: 2025-293 Owner: SPXS Country: US Constellation: starlink
LEOCIRCULAR

About Starlink 36167

Description loading...

Live Position

Loading 3D Globe...

Upcoming Passes

Altitude History

Altitude vs Time

uPlot chart will show altitude changes over time

Two-Line Element Set

1 67011C 25293J 25346.10604167 -.00361050 00000+0 -50628-3 0 3467
2 67011 69.9973 325.9205 0004359 270.2000 209.1297 16.05931341 12
Epoch: Dec 12, 2025 • Age: 50 hours

Current Status

Altitude 270.8 km
Velocity 7.74 km/s
Sub-Earth Point -28.48°S, 160.96°W
Launch Date Dec 10, 2025
Age 3 days
Type internet

Technical Details

Classification Payload
Mass 575.00 kg
Dry Mass 530.00 kg
Total Mass 575.00 kg
Length 0.30 m
Diameter 4.10 m
Span 29.00 m
Shape Box + pan
Manufacturer SPXS
Bus Type Starlink V2MO
Phase Status In Orbit
Owner/State SPXS/US

Large Constellations

Loading constellations...